Flag for U.S.A. Weather past 2 weeks in Provincetown, Massachusetts, U.S.A.

Now
45 °F

Overcast.


Feels Like: N/A
Forecast: 42 / 51 °F
Wind: N/A

Location: Provincetown Weather Reporting Station


UV Index: 5 (Moderate)

Visibility: 10 mi


Pressure: 29.55 "Hg

Humidity: 76%

Dew point: 37 °F

Location of ProvincetownLocation

Historic Weather in Provincetown

°F

Provincetown temperature yesterday

Maximum temperature yesterday: 61 °F (at 11:55 AM)
Minimum temperature yesterday: 45 °F (at 12:55 AM)
Average temperature yesterday: 51 °F

Past Weeks' High & Low Weather Summary

 TemperatureHumidityPressure
High63 °F (Apr 12, 2:55 PM)100% (Apr 12, 5:35 AM)30.80 "Hg (Apr 12, 5:35 AM)
Low28 °F (Apr 10, 6:35 AM)20% (Apr 10, 10:35 AM)29.38 "Hg (Apr 23, 1:15 PM)
Average46 °F74%30.09 "Hg
* Reported Apr 8 10:15 PM — Apr 23 10:35 PM, Provincetown, Weather by CustomWeather, © 2014

Note: Actual official high and low records may vary slightly from our data, if they occured in-between our weather recording intervals... More about our weather records

Advertising

Historic Weather Conditions — Data for Previous 24 hours

 ConditionsComfort  
Time TempWeatherWind HumidityBarometerVisibility
10:35 PM
Apr 23
45 °FMostly cloudy.N/A76%29.54 "Hg10 mi
10:15 PM45 °FMostly cloudy.N/A76%29.53 "Hg10 mi
9:55 PM45 °FOvercast.N/A76%29.53 "Hg10 mi
9:35 PM45 °FOvercast.N/A76%29.53 "Hg10 mi
9:15 PM45 °FOvercast.N/A76%29.53 "Hg10 mi
8:55 PM45 °FOvercast.N/A76%29.52 "Hg10 mi
8:35 PM46 °FOvercast.N/A71%29.51 "Hg10 mi
8:15 PM45 °FOvercast.N/A81%29.50 "Hg10 mi
7:55 PM45 °FPartly sunny.N/A76%29.50 "Hg10 mi
7:35 PM45 °FOvercast.N/A81%29.49 "Hg10 mi
7:15 PM45 °FOvercast.N/A81%29.48 "Hg9 mi
6:55 PM45 °FOvercast.N/A81%29.48 "Hg7 mi
6:35 PM45 °FOvercast.N/A81%29.47 "Hg7 mi
6:15 PM45 °FOvercast.N/A87%29.46 "Hg8 mi
5:55 PM45 °FOvercast.N/A87%29.46 "Hg9 mi
5:35 PM45 °FOvercast.N/A93%29.45 "Hg6 mi
5:15 PM45 °FMostly cloudy.N/A93%29.44 "Hg5 mi
4:55 PM45 °FMostly cloudy.N/A93%29.44 "Hg3 mi
4:35 PM45 °FMostly cloudy.N/A93%29.43 "Hg4 mi
4:15 PM45 °FMostly cloudy.N/A93%29.42 "Hg4 mi
3:55 PM45 °FMostly cloudy.N/A93%29.42 "Hg3 mi
3:35 PM45 °FOvercast.N/A100%29.42 "Hg3 mi
3:15 PM46 °FMostly cloudy.N/A93%29.41 "Hg3 mi
2:55 PM45 °FMostly cloudy.N/A100%29.41 "Hg2 mi
2:35 PM46 °FOvercast.N/A93%29.40 "Hg2 mi
2:15 PM46 °FMostly cloudy.N/A93%29.40 "Hg2 mi
1:55 PM46 °FMostly cloudy.N/A93%29.40 "Hg3 mi
1:35 PM46 °FCloudy.N/A93%29.39 "Hg5 mi
1:15 PM46 °FThundershowers. Overcast.N/A100%29.38 "Hg9 mi
12:55 PM48 °FMostly cloudy.N/A94%29.39 "Hg5 mi
12:35 PM48 °FOvercast.N/A94%29.40 "Hg3 mi
12:15 PM48 °FBroken clouds.N/A94%29.39 "Hg2 mi
11:55 AM48 °FPartly sunny.N/A100%29.40 "Hg3 mi
11:35 AM50 °FPartly sunny.N/A94%29.41 "Hg8 mi
11:15 AM50 °FSunny.N/A94%29.41 "Hg8 mi
10:55 AM52 °FSunny.N/A94%29.42 "Hg5 mi
10:35 AM52 °FSunny.N/A100%29.42 "Hg3 mi
9:55 AM48 °FBroken clouds.N/A100%29.45 "Hg3 mi
9:35 AM48 °FBroken clouds.N/A94%29.47 "Hg3 mi
9:15 AM46 °FBroken clouds.N/A100%29.48 "Hg4 mi
8:55 AM48 °FPartly sunny.N/A94%29.45 "Hg8 mi
8:35 AM50 °FBroken clouds.N/A94%29.44 "Hg9 mi
8:15 AM48 °FPartly sunny.N/A100%29.44 "Hg3 mi
7:55 AM46 °FLow clouds.N/A100%29.44 "Hg0 mi
7:35 AM46 °FLow clouds.N/A100%29.46 "Hg0 mi
7:15 AM46 °FLow clouds.N/A93%29.45 "Hg0 mi
6:55 AM45 °FLow clouds.N/A93%29.46 "Hg0 mi
6:35 AM45 °FLow clouds.N/A100%29.45 "Hg0 mi
6:15 AM45 °FLow clouds.N/A93%29.45 "Hg0 mi
5:55 AM46 °FLow clouds.N/A93%29.45 "Hg0 mi
5:35 AM46 °FLow clouds.N/A93%29.45 "Hg0 mi
5:15 AM46 °FLow clouds.N/A93%29.45 "Hg1 mi
4:55 AM46 °FPassing clouds.N/A93%29.45 "Hg5 mi
4:35 AM46 °FClear.N/A93%29.45 "Hg7 mi
4:15 AM46 °FClear.N/A93%29.45 "Hg7 mi
3:55 AM46 °FClear.N/A100%29.45 "Hg9 mi
3:35 AM46 °FPassing clouds.N/A100%29.45 "Hg9 mi
3:15 AM48 °FOvercast.N/A94%29.47 "Hg10 mi
2:55 AM48 °FOvercast.N/A100%29.47 "Hg10 mi
2:35 AM48 °FMostly cloudy.N/A100%29.46 "Hg10 mi
2:15 AM48 °FOvercast.N/A100%29.47 "Hg10 mi
1:55 AM48 °FOvercast.N/A100%29.47 "Hg10 mi
1:35 AM48 °FOvercast.N/A100%29.48 "Hg10 mi
1:15 AM50 °FOvercast.N/A94%29.49 "Hg9 mi
12:55 AM48 °FOvercast.N/A100%29.49 "Hg9 mi
12:35 AM48 °FPassing clouds.N/A100%29.50 "Hg8 mi
12:15 AM48 °FLow clouds.N/A100%29.51 "Hg7 mi
11:55 PM
Apr 22
48 °FMostly cloudy.N/A94%29.52 "Hg5 mi
11:35 PM48 °FMostly cloudy.N/A94%29.52 "Hg9 mi
Weather by CustomWeather, © 2014

See weather overview